EN

Hourly Weather Borzykowka

Today, 10 May, Monday

Time Temperature Precipitation Wind Pressure Humidity
00:00 +10°C° 0 mm 3 mps 740 mmHg 85%
01:00 +10°C° 0 mm 3 mps 739 mmHg 84%
02:00 +10°C° 0 mm 3 mps 739 mmHg 84%
03:00 +9°C° 0 mm 3 mps 739 mmHg 83%
04:00 +9°C° 0 mm 3 mps 739 mmHg 82%
05:00 +10°C° 0 mm 4 mps 739 mmHg 78%
06:00 +12°C° 0 mm 4 mps 739 mmHg 74%
07:00 +14°C° 0 mm 4 mps 739 mmHg 70%
08:00 +17°C° 0 mm 4 mps 739 mmHg 65%
09:00 +19°C° 0 mm 4 mps 739 mmHg 59%
10:00 +21°C° 0 mm 4 mps 739 mmHg 54%
11:00 +22°C° 0 mm 4 mps 739 mmHg 51%
12:00 +23°C° 0 mm 4 mps 739 mmHg 49%
13:00 +25°C° 0 mm 4 mps 739 mmHg 46%
14:00 +25°C° 0 mm 4 mps 739 mmHg 48%
15:00 +25°C° 0 mm 3 mps 739 mmHg 49%
16:00 +26°C° 0 mm 3 mps 738 mmHg 51%
17:00 +22°C° 0 mm 3 mps 739 mmHg 60%
18:00 +20°C° 0 mm 3 mps 739 mmHg 68%
19:00 +18°C° 0 mm 2 mps 739 mmHg 77%
20:00 +17°C° 0 mm 2 mps 739 mmHg 79%
21:00 +16°C° 0 mm 2 mps 739 mmHg 82%
22:00 +15°C° 0 mm 2 mps 739 mmHg 84%
23:00 +14°C° 0 mm 2 mps 739 mmHg 85%

Tomorrow, 11 May, Tuesday

Time Temperature Precipitation Wind Pressure Humidity
00:00 +14°C° 0 mm 2 mps 739 mmHg 86%
01:00 +12°C° 0 mm 3 mps 739 mmHg 87%
02:00 +12°C° 0 mm 3 mps 738 mmHg 88%
03:00 +11°C° 0 mm 3 mps 738 mmHg 89%
04:00 +11°C° 0 mm 3 mps 738 mmHg 90%
05:00 +12°C° 0 mm 4 mps 737 mmHg 85%
06:00 +14°C° 0 mm 5 mps 737 mmHg 80%
07:00 +15°C° 0 mm 5 mps 737 mmHg 74%
08:00 +17°C° 0 mm 6 mps 737 mmHg 70%
09:00 +20°C° 0 mm 6 mps 737 mmHg 65%
10:00 +22°C° 0 mm 6 mps 737 mmHg 60%
11:00 +23°C° 0 mm 6 mps 737 mmHg 57%
12:00 +24°C° 0 mm 6 mps 737 mmHg 54%
13:00 +26°C° 0 mm 6 mps 737 mmHg 51%
14:00 +26°C° 0 mm 6 mps 736 mmHg 54%
15:00 +26°C° 0 mm 6 mps 736 mmHg 56%
16:00 +26°C° 0 mm 6 mps 736 mmHg 59%
17:00 +23°C° 0 mm 6 mps 735 mmHg 64%
18:00 +21°C° 0 mm 6 mps 735 mmHg 70%
19:00 +18°C° 0 mm 7 mps 735 mmHg 76%
20:00 +17°C° 0 mm 6 mps 735 mmHg 76%
21:00 +16°C° 0 mm 6 mps 735 mmHg 76%
22:00 +15°C° 0 mm 6 mps 735 mmHg 77%
23:00 +14°C° 0 mm 5 mps 735 mmHg 77%

Day after tomorrow, 12 May, Wednesday

Time Temperature Precipitation Wind Pressure Humidity
00:00 +13°C° 0 mm 4 mps 735 mmHg 78%
01:00 +12°C° 0 mm 4 mps 735 mmHg 78%
02:00 +11°C° 0 mm 4 mps 735 mmHg 77%
03:00 +11°C° 0 mm 3 mps 735 mmHg 77%
04:00 +10°C° 0 mm 3 mps 735 mmHg 76%
05:00 +12°C° 0 mm 4 mps 735 mmHg 74%
06:00 +13°C° 0 mm 4 mps 735 mmHg 72%
07:00 +14°C° 0 mm 4 mps 735 mmHg 69%
08:00 +16°C° 0 mm 5 mps 734 mmHg 67%
09:00 +19°C° 0 mm 5 mps 734 mmHg 64%
10:00 +20°C° 0 mm 6 mps 734 mmHg 61%
11:00 +21°C° 0 mm 7 mps 734 mmHg 59%
12:00 +22°C° 0 mm 7 mps 734 mmHg 57%
13:00 +23°C° 0 mm 8 mps 734 mmHg 55%
14:00 +22°C° 0 mm 7 mps 733 mmHg 57%
15:00 +21°C° 0 mm 7 mps 733 mmHg 60%
16:00 +21°C° 0 mm 7 mps 733 mmHg 63%
17:00 +18°C° 0 mm 7 mps 733 mmHg 66%
18:00 +16°C° 0 mm 7 mps 733 mmHg 70%
19:00 +15°C° 0 mm 6 mps 733 mmHg 73%
20:00 +13°C° 0 mm 6 mps 733 mmHg 74%
21:00 +12°C° 0 mm 5 mps 733 mmHg 75%
22:00 +10°C° 0 mm 5 mps 733 mmHg 77%
23:00 +10°C° 0 mm 5 mps 732 mmHg 79%

13 May, Thursday

Time Temperature Precipitation Wind Pressure Humidity
00:00 +10°C° 0 mm 4 mps 732 mmHg 82%
01:00 +8°C° 0 mm 4 mps 732 mmHg 85%
02:00 +7°C° 0 mm 4 mps 731 mmHg 88%
03:00 +7°C° 0 mm 3 mps 731 mmHg 90%
04:00 +5°C° 0 mm 3 mps 731 mmHg 93%
05:00 +8°C° 0 mm 3 mps 731 mmHg 87%
06:00 +9°C° 0 mm 3 mps 731 mmHg 82%
07:00 +10°C° 0 mm 3 mps 730 mmHg 76%
08:00 +12°C° 0 mm 3 mps 730 mmHg 74%
09:00 +13°C° 0 mm 3 mps 730 mmHg 71%
10:00 +14°C° 0 mm 3 mps 730 mmHg 69%
11:00 +15°C° 0 mm 2 mps 730 mmHg 70%
12:00 +15°C° 0 mm 2 mps 730 mmHg 71%
13:00 +15°C° 0 mm 2 mps 729 mmHg 72%
14:00 +15°C° 0 mm 2 mps 729 mmHg 73%
15:00 +15°C° 0 mm 1 mps 729 mmHg 74%
16:00 +15°C° 0 mm 1 mps 729 mmHg 76%
17:00 +15°C° 0 mm 1 mps 729 mmHg 79%
18:00 +14°C° 0 mm 1 mps 729 mmHg 82%
19:00 +13°C° 0 mm 1 mps 729 mmHg 86%
20:00 +13°C° 0 mm 1 mps 729 mmHg 87%
21:00 +12°C° 0 mm 1 mps 730 mmHg 88%
22:00 +11°C° 0 mm 0 mps 730 mmHg 89%
23:00 +11°C° 0 mm 0 mps 730 mmHg 89%

14 May, Friday

Time Temperature Precipitation Wind Pressure Humidity
00:00 +11°C° 0 mm 1 mps 730 mmHg 89%
01:00 +11°C° 0 mm 1 mps 730 mmHg 90%
02:00 +11°C° 0 mm 1 mps 730 mmHg 89%
03:00 +11°C° 0 mm 1 mps 730 mmHg 89%
04:00 +11°C° 0 mm 1 mps 730 mmHg 89%
05:00 +12°C° 0 mm 2 mps 731 mmHg 87%
06:00 +12°C° 0 mm 2 mps 731 mmHg 85%
07:00 +12°C° 0 mm 3 mps 731 mmHg 83%
08:00 +13°C° 0.1 mm 3 mps 731 mmHg 81%
09:00 +13°C° 0.1 mm 4 mps 732 mmHg 79%
10:00 +14°C° 0.1 mm 4 mps 732 mmHg 78%
11:00 +14°C° 0 mm 4 mps 732 mmHg 73%
12:00 +15°C° 0 mm 4 mps 733 mmHg 69%
13:00 +17°C° 0 mm 4 mps 733 mmHg 64%
14:00 +17°C° 0.1 mm 4 mps 733 mmHg 65%
15:00 +17°C° 0.1 mm 4 mps 733 mmHg 65%
16:00 +17°C° 0.1 mm 4 mps 733 mmHg 66%
17:00 +15°C° 0.1 mm 4 mps 733 mmHg 71%
18:00 +14°C° 0.1 mm 4 mps 733 mmHg 76%
19:00 +13°C° 0.1 mm 3 mps 734 mmHg 81%
20:00 +12°C° 0 mm 3 mps 734 mmHg 83%
21:00 +12°C° 0 mm 3 mps 734 mmHg 84%
22:00 +11°C° 0 mm 3 mps 735 mmHg 85%
23:00 +11°C° 0 mm 3 mps 735 mmHg 86%

15 May, Saturday

Time Temperature Precipitation Wind Pressure Humidity
00:00 +11°C° 0 mm 3 mps 735 mmHg 86%
01:00 +11°C° 0 mm 3 mps 735 mmHg 87%
02:00 +10°C° 0 mm 3 mps 735 mmHg 89%
03:00 +9°C° 0 mm 2 mps 735 mmHg 90%
04:00 +9°C° 0 mm 2 mps 735 mmHg 92%
05:00 +10°C° 0 mm 3 mps 736 mmHg 87%
06:00 +11°C° 0 mm 3 mps 736 mmHg 82%
07:00 +12°C° 0 mm 3 mps 736 mmHg 78%
08:00 +13°C° 0 mm 4 mps 736 mmHg 74%
09:00 +13°C° 0 mm 4 mps 736 mmHg 71%
10:00 +14°C° 0 mm 4 mps 737 mmHg 68%
11:00 +14°C° 0 mm 4 mps 737 mmHg 69%
12:00 +14°C° 0 mm 4 mps 737 mmHg 69%
13:00 +14°C° 0 mm 4 mps 737 mmHg 70%
14:00 +14°C° 0 mm 4 mps 737 mmHg 70%
15:00 +13°C° 0 mm 4 mps 737 mmHg 71%
16:00 +13°C° 0 mm 3 mps 737 mmHg 71%
17:00 +13°C° 0 mm 3 mps 737 mmHg 74%
18:00 +13°C° 0 mm 2 mps 737 mmHg 78%
19:00 +12°C° 0 mm 1 mps 737 mmHg 81%
20:00 +12°C° 0 mm 1 mps 737 mmHg 84%
21:00 +11°C° 0 mm 1 mps 737 mmHg 86%
22:00 +11°C° 0 mm 1 mps 737 mmHg 89%
23:00 +10°C° 0 mm 1 mps 737 mmHg 88%
Show more

We Need Your Consent

Meteoprog and our Service Providers may store and access personal data such as cookies, device identifiers or other similar technologies on your device and process such data to personalise content and ads, as well as provide social media features and to analyse the traffic.

  • Store and/or access information on your device

    Cookies, device identifiers or other information can be stored or accessed on your device for the purposes indicated above.

  • Personalised ads and content, ad and content measurement, audience insights, and products development

    Ads and content can be personalised based on a profile. More data can be added to better personalise ads and content. Ad and content performance can be measured. Insights about the audience who saw the ads and content can be derived. Such data can be used to develop or improve user’s experience, systems and software.

By clicking ‘I Agree’ you will allow the use of indicated cookies, device identifiers, web beacons or other similar technologies. Your settings can be changed in the browser on your device.

For certain purposes, legitimate interests may be relied on, rather than consent. You can read more about this in our Privacy and Cookie Policy.